This is the latest recevied weather packets stored in our database for station/object F5OWB. If no packets are shown the sender has not sent any weather packets the latest 10 day(s).
| Time | Temp. | Humidity | Pressure | Rain* | Wind** | Luminosity | Snow |
|---|---|---|---|---|---|---|---|
| 1778168929 | 17.22° C | 54% | 1017.3 hPa | 0 mm | - | 424 W/m² | - |
| 1778168872 | 17.22° C | 55% | 1017.3 hPa | 0 mm | - | 425 W/m² | - |
| 1778168810 | 17.22° C | 54% | 1017.3 hPa | 0 mm | - | 427 W/m² | - |
| 1778168752 | 17.22° C | 54% | 1017.3 hPa | 0 mm | - | 431 W/m² | - |
| 1778168690 | 17.22° C | 53% | 1017.3 hPa | 0 mm | - | 434 W/m² | - |
| 1778168629 | 17.22° C | 53% | 1017.2 hPa | 0 mm | - | 436 W/m² | - |
| 1778168570 | 17.22° C | 55% | 1017.2 hPa | 0 mm | - | 438 W/m² | - |
| 1778168510 | 17.22° C | 55% | 1017.3 hPa | 0 mm | - | 441 W/m² | - |
| 1778168451 | 17.22° C | 54% | 1017.2 hPa | 0 mm | - | 443 W/m² | - |
| 1778168390 | 17.22° C | 55% | 1017.2 hPa | 0 mm | - | 445 W/m² | - |
| 1778168328 | 17.22° C | 53% | 1017.2 hPa | 0 mm | - | 448 W/m² | - |
| 1778168265 | 17.22° C | 56% | 1017.2 hPa | 0 mm | - | 450 W/m² | - |
| 1778168203 | 17.22° C | 55% | 1017.2 hPa | 0 mm | - | 454 W/m² | - |
| 1778168144 | 17.22° C | 56% | 1017.2 hPa | 0 mm | - | 455 W/m² | - |
| 1778168080 | 17.22° C | 57% | 1017.2 hPa | 0 mm | - | 457 W/m² | - |
| 1778168019 | 17.22° C | 56% | 1017.2 hPa | 0 mm | - | 446 W/m² | - |
| 1778167980 | 17.22° C | 56% | 1017.2 hPa | 0 mm | - | 471 W/m² | - |
| 1778167959 | 17.22° C | 56% | 1017.2 hPa | 0 mm | - | 466 W/m² | - |
| 1778167901 | 17.22° C | 55% | 1017.2 hPa | 0 mm | - | 417 W/m² | - |
| 1778167836 | 17.22° C | 57% | 1017.2 hPa | 0 mm | - | 468 W/m² | - |
| 1778167773 | 17.22° C | 56% | 1017.2 hPa | 0 mm | - | 471 W/m² | - |
| 1778167714 | 17.22° C | 54% | 1017.2 hPa | 0 mm | - | 473 W/m² | - |
| 1778167654 | 17.22° C | 56% | 1017.2 hPa | 0 mm | - | 475 W/m² | - |
| 1778167593 | 17.22° C | 56% | 1017.2 hPa | 0 mm | - | 476 W/m² | - |
| 1778167533 | 17.22° C | 56% | 1017.2 hPa | 0 mm | - | 480 W/m² | - |
* Rain latest hour (hover to see other rain measurements)
** Current wind speed in m/s (hover to see current wind gust speed)